KB1JDX Weather Reports


Display with metric or nautical units.
time (UTC)temp
F
wind
direction
speed
MPH
gust
MPH
rain 1hr
in
rain 24hr
in
rain mn
in
humidity
%
barometer
mb
20171214014752 22 306 0.0 10.0 0.00 0.00 0.00 62 1001.8
20171214012948 22 300 5.0 10.0 0.00 0.00 0.00 61 1001.7
20171214012751 22 297 4.0 10.0 0.00 0.00 0.00 61 1001.6
20171214010751 22 306 0.0 10.0 0.00 0.00 0.00 63 1001.5
20171214004750 22 273 0.0 10.0 0.00 0.00 0.00 64 1001.3
20171214002944 22 292 4.0 11.0 0.00 0.00 0.00 63 1001.3
20171214002746 22 292 0.0 11.0 0.00 0.00 0.00 62 1001.3
20171214001909 22 304 1.0 11.0 0.00 0.00 0.00 63 1001.2
20171214001541 22 304 0.0 11.0 0.00 0.00 0.00 63 1001.2
20171213235907 23 297 2.0 11.0 0.00 0.00 0.00 61 1001.1
20171213233907 23 300 4.0 9.0 0.00 0.00 0.00 60 1000.7
20171213231906 23 230 6.0 9.0 0.00 0.00 0.00 60 1000.3
20171213231534 23 311 2.0 9.0 0.00 0.00 0.00 59 1000.3
20171213225907 23 299 0.0 14.0 0.00 0.00 0.00 59 1000.1
20171213223906 23 329 0.0 14.0 0.00 0.00 0.00 60 999.9
20171213221906 24 315 11.0 14.0 0.00 0.00 0.00 60 999.3
20171213221535 24 302 0.0 14.0 0.00 0.00 0.00 60 999.3
20171213215918 24 281 3.0 13.0 0.00 0.00 0.00 61 999.1
20171213213907 24 281 4.0 13.0 0.00 0.00 0.00 61 998.3
20171213211908 24 282 1.0 13.0 0.00 0.00 0.00 62 998.0
20171213211536 24 296 10.0 13.0 0.00 0.00 0.00 62 997.9
20171213205907 24 306 1.0 13.0 0.00 0.00 0.00 61 997.7
20171213203907 24 285 10.0 16.0 0.00 0.00 0.00 60 997.1
20171213201914 25 286 9.0 16.0 0.00 0.00 0.00 58 996.8
20171213201535 25 280 2.0 16.0 0.00 0.00 0.00 59 996.9
20171213195908 25 299 5.0 18.0 0.00 0.00 0.00 59 996.6
20171213193907 25 334 1.0 18.0 0.00 0.00 0.00 59 996.3
20171213191907 24 300 4.0 18.0 0.00 0.00 0.00 60 996.4
20171213191535 24 300 6.0 18.0 0.00 0.00 0.00 60 996.1
20171213185906 24 310 8.0 14.0 0.00 0.00 0.00 62 996.0
20171213183907 23 296 4.0 19.0 0.00 0.00 0.00 60 995.7
20171213181907 22 302 7.0 19.0 0.00 0.00 0.00 63 995.4
20171213181536 22 283 7.0 19.0 0.00 0.00 0.00 63 995.4
20171213175912 23 292 4.0 19.0 0.00 0.00 0.00 61 995.1
20171213173908 22 219 16.0 21.0 0.00 0.00 0.00 60 994.7
20171213171908 22 287 2.0 21.0 0.00 0.00 0.00 61 994.7
20171213171535 22 296 6.0 21.0 0.00 0.00 0.00 60 994.6
20171213165907 22 302 4.0 16.0 0.00 0.00 0.00 65 995.1
20171213163907 22 236 2.0 21.0 0.00 0.00 0.00 67 995.0
20171213161908 21 298 6.0 21.0 0.00 0.00 0.00 65 995.1
20171213161535 21 300 6.0 20.0 0.00 0.00 0.00 62 995.0
20171213155913 21 286 9.0 20.0 0.00 0.00 0.00 63 995.2
20171213153908 21 294 8.0 18.0 0.00 0.00 0.00 63 995.2
20171213151907 21 316 4.0 18.0 0.00 0.00 0.00 62 995.0
20171213151537 21 321 11.0 18.0 0.00 0.00 0.00 61 995.1
20171213145907 21 315 4.0 16.0 0.00 0.00 0.00 66 995.3
20171213143908 20 284 7.0 13.0 0.00 0.00 0.00 66 995.5
20171213141908 20 260 7.0 13.0 0.00 0.00 0.00 66 995.1
20171213141535 20 311 9.0 14.0 0.00 0.00 0.00 67 995.2
20171213135908 20 311 3.0 14.0 0.00 0.00 0.00 68 995.0
20171213133915 20 285 5.0 12.0 0.00 0.00 0.00 68 995.0
20171213131907 19 295 5.0 12.0 0.00 0.00 0.00 69 994.8
20171213131536 19 319 5.0 12.0 0.00 0.00 0.00 68 994.6
20171213125908 19 290 6.0 14.0 0.00 0.00 0.00 69 994.7
20171213123909 19 296 6.0 12.0 0.00 0.00 0.00 68 994.4
20171213121908 19 282 5.0 12.0 0.00 0.00 0.00 69 994.4
20171213121536 19 304 4.0 12.0 0.00 0.00 0.00 69 994.3
20171213115909 19 299 4.0 13.0 0.00 0.00 0.00 68 994.3
20171213113909 19 284 6.0 11.0 0.00 0.00 0.00 67 994.1
20171213111908 19 291 6.0 11.0 0.00 0.00 0.00 66 994.2
20171213111537 20 292 5.0 11.0 0.00 0.00 0.00 66 994.1
20171213105909 20 301 2.0 15.0 0.00 0.00 0.00 65 993.9
20171213103910 20 336 6.0 13.0 0.00 0.00 0.00 65 993.8
20171213101908 21 292 5.0 13.0 0.00 0.00 0.00 65 993.6
20171213101535 21 309 2.0 13.0 0.00 0.00 0.00 65 993.5
20171213095908 21 306 7.0 19.0 0.00 0.00 0.00 65 993.3
20171213093916 22 299 5.0 19.0 0.00 0.00 0.00 65 993.2
20171213091908 22 308 4.0 19.0 0.00 0.00 0.00 63 993.4
20171213091536 22 284 5.0 19.0 0.00 0.00 0.00 63 993.2
20171213085908 23 300 5.0 12.0 0.00 0.00 0.00 63 993.1
20171213083910 23 311 5.0 9.0 0.00 0.00 0.00 64 993.4
20171213081909 24 314 0.0 9.0 0.00 0.00 0.00 69 993.7
20171213081537 24 314 4.0 9.0 0.00 0.00 0.00 70 993.8
20171213075914 25 301 0.0 10.0 0.00 0.00 0.00 70 993.9
20171213073910 25 327 4.0 12.0 0.00 0.00 0.00 69 994.2
20171213071908 26 288 2.0 12.0 0.00 0.00 0.00 72 994.4
20171213071538 26 284 0.0 12.0 0.00 0.00 0.00 72 994.4
20171213065910 27 319 0.0 13.0 0.00 0.00 0.00 73 994.2
20171213063910 28 302 5.0 15.0 0.00 0.00 0.00 74 993.5
20171213061910 28 319 4.0 15.0 0.00 0.00 0.00 74 993.7
20171213061536 28 341 1.0 15.0 0.00 0.00 0.00 74 993.9
20171213055908 29 312 5.0 11.0 0.00 0.00 0.00 74 993.5
20171213053916 29 331 2.0 9.0 0.00 0.00 0.00 77 993.1
20171213051909 30 310 8.0 9.0 0.00 0.00 0.00 77 993.0
20171213051536 30 300 7.0 9.0 0.00 0.00 0.00 78 993.3
20171213045910 31 302 2.0 9.0 0.00 0.00 0.00 79 993.1
20171213043910 31 304 0.0 9.0 0.00 0.00 0.00 79 992.1
20171213041915 32 323 7.0 9.0 0.00 0.00 0.00 80 993.2
20171213041546 32 305 4.0 9.0 0.00 0.00 0.00 80 993.6
20171213035909 32 302 1.0 12.0 0.00 0.00 0.00 81 993.2
20171213033909 33 314 1.0 8.0 0.00 0.00 0.00 82 994.3
20171213031908 34 313 6.0 8.0 0.00 0.00 0.00 81 993.9
20171213031536 34 311 5.0 8.0 0.00 0.00 0.00 81 993.6
20171213025911 35 318 0.0 8.0 0.00 0.00 0.00 81 993.3
20171213023910 35 313 4.0 0.0 0.00 0.00 0.00 81 993.6